SL-16 R/B (23705 NORAD) Tracking and Keplerian Element Data

This shows tracking and keplerian element data for the satellite.

Feedback or suggestion? Click here.




ElementValue
Catalog23705
NameSL-16 R/B
Epoch Orbit17283
Epoch Day198.6625855
Epoch Year2018
RAAN279.2954
Inclination71.0228
Eccentricity0.0010716
Argument of Perigee47.313
Mean Anonmoly312.8894
Mean Motion14.1511651
Decay Rate-2.07E-06
L11 23705U 95058B 18198.66258550 -.00000207 00000-0 -82398-4 0 9993
L22 23705 71.0228 279.2954 0010716 47.3130 312.8894 14.15116510172831

Live tracking and technical data element details for SL-16 R/B (NORAD 23705). SL-16 R/B can be tracked NOW for your location showing map with azimuth and elevation plus other details from your city location.

Track the satellite on the map from your city or location and see movement details for azimuth, elevation, latitude, longitude, range, height, and movement on the map or in text.







IsCatalogInMostPopularTable: catalog: 23705, numindb: 25
Update: records affected: 1



GetName: 23705 SL-16 R/B

Hit Count: updated at: Wed, 18 Jul 2018 20:26:20 GMT